www.pogodaiklimat.ru

Погода и климат >> Архив погоды >> Мьянма >> Тандве


ПОГОДА в Тандве

  • Прогноз погоды в Тандве
  • Монитор погоды в Тандве

АРХИВ ПОГОДЫ в Тандве

Время (UTC), дата Ветер
(напр.,м/с)
 
Видим.   Явления Облачность Т
(С)
Тd
(С)
f
(%)
Тe
(С)
Тes
(С)
Комфортность P
(гПа)
Po
(гПа)
Тmin
(С)
Tmax
(С)
R
(мм)
R24
(мм)
S
(см)
12 14.04 ЮЗ 3 7000 м 5/3 600 м
[Cu Sc Ac As]
+31.0 +25.4 72 +45 +45 опасность
перегрева
1007.8 1006.6 +36.1
15 14.04 штиль 0 5000 м 5/3 600 м
[Cu Sc Ac As]
+29.0 +24.8 78 +41 +41 опасность
перегрева
1008.8 1007.5
00 15.04 штиль 0 6000 м 8/4 300 м
[Cu Sc Ac As]
+25.0 +23.3 90 +33 +34 очень
душно
1009.0 1007.7 +22.0
06 15.04 ЮЗ 6 11 км 6/4 300 м
[Cu Sc Ac As]
+32.0 +23.6 61 +43 +47 опасность
перегрева
1010.5 1009.3
09 15.04 ЮЗ 5 11 км 8/4 300 м
[Cu Sc Ac As]
+35.0 +24.0 53 +47 +48 опасность
перегрева
1008.4 1007.2
12 15.04 ЮЗ 2 7000 м 4/4 600 м
[Cu hum]
+30.0 +25.3 76 +44 +44 опасность
перегрева
1008.0 1006.8 +35.8
00 16.04 штиль 0 6000 м 4/4 600 м
[Cu Sc]
+26.0 +24.6 92 +37 +37 очень
душно
1009.2 1007.9 +23.0
03 16.04 СЗ 1 10 км 3/3 600 м
[Cu hum]
+32.0 +24.8 66 +45 +56 опасность
перегрева
1011.0 1009.8
06 16.04 ЮЗ 5 12 км ясно +37.0 +25.8 53 +52 +64 опасность
перегрева
1009.4 1008.2
09 16.04 ЮЗ 6 н/о +35.5 +26.4 59 +52 +55 опасность
перегрева
1007.4 1006.2
12 16.04 ЮЗ 1 6000 м 3/3 600 м
[Cu Sc]
+30.5 +25.4 74 +44 +44 опасность
перегрева
1008.3 1007.1 +37.0
15 16.04 штиль 0 5000 м 3/3 600 м
[Cu hum]
+28.0 +25.9 88 +42 +42 опасность
перегрева
1009.6 1008.3
00 17.04 штиль 0 6000 м 9/5 300 м
[Cu Sc Ac As]
+26.0 +24.6 92 +37 +37 очень
душно
1008.8 1007.5 +19.2
03 17.04 ЮЗ 2 10 км 5/3 300 м
[Cu Sc Ac As]
+31.0 +25.9 74 +46 +53 опасность
перегрева
1010.2 1009.0
06 17.04 ЮЗ 6 12 км 3/3 600 м
[Cu hum]
+36.0 +24.9 53 +49 +55 опасность
перегрева
1011.0 1009.8
09 17.04 ЮЗ 3 11 км 5/5 300 м
[Cb cap]
+35.0 +24.0 53 +47 +51 опасность
перегрева
1008.2 1007.0
12 17.04 ЮЗ 2 7000 м 6/4 300 м
[Cu Sc Ac As]
+31.0 +25.4 72 +45 +45 опасность
перегрева
1008.0 1006.8 +36.9
15 17.04 штиль 0 5000 м ясно +28.5 +25.9 86 +43 +43 опасность
перегрева
1009.0 1007.7
00 18.04 штиль 0 6000 м 5/3 600 м
[Cu Sc Ac As]
+26.0 +24.6 92 +37 +37 очень
душно
1008.6 1007.3 +23.0
03 18.04 ЮЗ 1 10 км ясно +33.0 +24.4 61 +46 +61 опасность
перегрева
1010.3 1009.1
06 18.04 З 6 11 км ясно +35.0 +24.0 53 +47 +55 опасность
перегрева
1009.5 1008.3
09 18.04 ЮЗ 5 н/о +36.0 +26.4 58 +53 +56 опасность
перегрева
1006.2 1005.0
12 18.04 ЮЗ 1 6000 м ясно +32.0 +26.5 73 +49 +49 опасность
перегрева
1006.8 1005.6 +37.8
15 18.04 штиль 0 5000 м 6/4 600 м
[Cu Sc Ac As]
+28.5 +25.9 86 +43 +43 опасность
перегрева
1008.7 1007.4
00 19.04 штиль 0 6000 м 10/6 300 м
[Cu Sc Ac As]
+27.0 +25.6 92 +40 +40 очень
душно
1007.6 1006.3 +24.5
03 19.04 СВ 1 10 км 6/4 300 м
[Cb cap Ac As]
+31.0 +25.4 72 +45 +52 опасность
перегрева
1009.0 1007.8
06 19.04 ЮЗ 4 12 км ясно +36.0 +26.4 58 +53 +67 опасность
перегрева
1008.5 1007.3
09 19.04 ЮЗ 7 11 км 5/5 300 м
[Cb cap]
+36.0 +26.4 58 +53 +54 опасность
перегрева
1006.6 1005.4
12 19.04 ЮЗ 2 7000 м 6/4 300 м
[Cb cap Ac As]
+32.0 +26.5 73 +49 +49 опасность
перегрева
1006.3 1005.1 +36.8
15 19.04 штиль 0 5000 м 5/3 300 м
[Cu Sc Ac As]
+30.0 +23.9 70 +41 +41 опасность
перегрева
1007.6 1006.4
00 20.04 штиль 0 6000 м 9/6 300 м
[Cu Sc Ac As]
+24.0 +22.6 92 +31 +32 очень
душно
1006.5 1005.2 +21.6
03 20.04 СЗ 1 10 км 5/5 600 м
[Cu Sc]
+31.0 +23.7 65 +42 +50 опасность
перегрева
1008.4 1007.2
06 20.04 З 5 12 км 1/1 600 м
[Cu hum]
+35.0 +24.0 53 +47 +57 опасность
перегрева
1007.8 1006.6
09 20.04 З 4 11 км 8/5 300 м
[Cb cap Ac As]
+36.0 +24.9 53 +49 +51 опасность
перегрева
1005.0 1003.8
12 20.04 ЮЗ 1 6000 м ясно +32.0 +24.8 66 +45 +45 опасность
перегрева
1004.0 1002.8 +36.2
00 21.04 штиль 0 800 м туман местами 4/3 600 м
[Cu Sc Ac As]
+25.0 +23.3 90 +33 +34 очень
душно
1005.3 1004.0 +22.1
03 21.04 СЗ 1 10 км {туман} ясно +31.0 +23.7 65 +42 +58 опасность
перегрева
1007.2 1006.0
06 21.04 ЮЗ 4 12 км ясно +38.0 +24.0 45 +49 +64 опасность
перегрева
1006.4 1005.2
09 21.04 ЮЗ 4 11 км 5/3 600 м
[Cb cap Ac As]
+37.0 +25.3 51 +51 +54 опасность
перегрева
1003.6 1002.4

 

Местоположение метеостанции Тандве (Мьянма): широта 18.47 долгота 94.35 высота над уровнем моря 11 м.

В архиве по умолчанию представлена погода в Тандве за последнюю неделю. Архивные данные за месяц целиком и за предыдущие месяцы, начиная с января 2011 года, Вы можете получить, выбрав интересующий диапазон дат из раскрывающегося списка и нажав кнопку "Ввод!".


*Определитесь, кто Вы:
робот инопланетянин человек

Внимание! Время в таблицах - всемирное. Для получения местного времени необходимо прибавить поправку, которая равна 6.5 ч.

Смотрите также архив погоды в соседних городах и на ближайших метеорологических станциях:

Погода в Манаунге (Мьянма) (78 км)
Погода в Проме (Мьянма) (99 км)
Погода в Гва (Мьянма) (102 км)
Погода в Кяокпю (Мьянма) (135 км)
Погода в Хинтаде (Мьянма) (144 км)
Погода в Бассейне (Мьянма) (194 км)
Погода в Минбу (Мьянма) (197 км)
Погода в Магуэе (Мьянма) (197 км)
Погода в Таунгу (Мьянма) (229 км)
Погода в Хмавби (Мьянма) (234 км)

Пояснения к столбцам:

Ветер - указаны скорость ветра в м/с - средняя за 10 мин, порывы в срок и между сроками (в фигурных скобках) и направление, откуда дует ветер: С - северный, СВ - северо-восточный, В - восточный, ЮВ - юго-восточный, Ю - южный, ЮЗ - юго-западный, З - западный, СЗ - северо-западный.
Видимость - горизонтальная дальность видимости в метрах или километрах. При видимости от 1 до 10 км при отсутствии осадков обычно наблюдается дымка, при ухудшении видимости до 1 км и менее - туман. В сухую погоду видимость может ухудшаться дымом, пылью или мглою.
Явления - указаны атмосферные явления, наблюдавшиеся в срок или в последний час перед сроком; фигурными скобками обозначены явления, наблюдавшиеся между сроками (за 1-3 часа до срока); квадратными скобками обозначены град или гололедные отложения с указанием их диаметра в мм.
Облачность - указаны через наклонную черту общая и нижняя облачность в баллах и высота нижней границы облаков в метрах; квадратными скобками обозначены формы облаков: Ci - перистые, Cs - перисто-слоистые, Cc - перисто-кучевые, Ac - высококучевые, As - высокослоистые, Sc - слоисто-кучевые, Ns - слоисто-дождевые, Cu - кучевые, Cb - кучево-дождевые. Подробнее классификацию облаков см. в Атласе облаков (PDF).
T - Температура воздуха - температура, измеренная на высоте 2 м над землей.
Td - Температура точки росы - температура, при понижении до которой содержащийся в воздухе водяной пар достигнет насыщения.
f - Относительная влажность воздуха - влажноcть воздуха, измеренная на высоте 2 м над землей.
Te - Эффективная температура - температура, которую ощущает одетый по сезону человек в тени. Характеристика душности погоды. При расчете учитывается влияние влажности воздуха и скорости ветра на теплоощущения человека.
Tes - Эффективная температура на солнце - температура, которую ощущает человек, с поправкой на солнечный нагрев. Характеристика знойности погоды. Зависит от высоты солнца над горизонтом, облачности и скорости ветра. Ночью, в пасмурную погоду, а также при ветре 12 м/с и более поправка равна нулю.
P - Атмосферное давление - приведенное к уровню моря атмосферное давление.
Po - Атмосферное давление - измеренное на уровне метеостанции атмосферное давление.
Tmin - Минимальная температура - минимум температуры воздуха на высоте 2 м над землей.
Tmax - Максимальная температура - максимум температуры воздуха на высоте 2 м над землей.
R - Количество осадков - Количество выпавших осадков за период времени, мм. При наведении курсора мыши на число - период времени, за который выпало указанное количество осадков.
R24 - Количество осадков - Количество выпавших осадков за 24 часа, мм.
S - Снежный покров - Высота снежного покрова, см. При наведении курсора мыши на число - состояние снежного покрова и степень покрытия местности в баллах.